• In Hungary
  • List of Countries
  • For 7 days
  • Water Temperature
  • Satellite Maps
  • Weather Map
  • News
  • Weather Widgets
  • user-avatar
    Login

    Hourly Weather Kirkenes

    Today, 18 July, Wednesday

    Time Temperature Precipitation Wind Pressure Humidity
    00:00 +19°C° 0 mm 2 mps 752 mmHg 73%
    01:00 +20°C° 0 mm 1 mps 752 mmHg 74%
    02:00 +19°C° 0 mm 1 mps 753 mmHg 75%
    03:00 +20°C° 0.1 mm 1 mps 753 mmHg 72%
    04:00 +21°C° 0.1 mm 1 mps 753 mmHg 69%
    05:00 +22°C° 0.1 mm 1 mps 753 mmHg 66%
    06:00 +24°C° 0 mm 1 mps 753 mmHg 63%
    07:00 +25°C° 0 mm 1 mps 753 mmHg 59%
    08:00 +26°C° 0 mm 1 mps 753 mmHg 55%
    09:00 +28°C° 0 mm 1 mps 753 mmHg 51%
    10:00 +29°C° 0 mm 2 mps 753 mmHg 47%
    11:00 +30°C° 0 mm 2 mps 753 mmHg 43%
    12:00 +31°C° 0 mm 2 mps 753 mmHg 41%
    13:00 +31°C° 0 mm 2 mps 753 mmHg 39%
    14:00 +32°C° 0 mm 2 mps 753 mmHg 36%
    15:00 +32°C° 0 mm 2 mps 752 mmHg 37%
    16:00 +32°C° 0 mm 2 mps 752 mmHg 38%
    17:00 +32°C° 0 mm 2 mps 752 mmHg 38%
    18:00 +31°C° 0 mm 2 mps 752 mmHg 44%
    19:00 +30°C° 0 mm 2 mps 752 mmHg 49%
    20:00 +29°C° 0 mm 2 mps 752 mmHg 55%
    21:00 +28°C° 0 mm 2 mps 752 mmHg 57%
    22:00 +26°C° 0 mm 2 mps 752 mmHg 60%
    23:00 +25°C° 0 mm 3 mps 752 mmHg 62%

    Tomorrow, 19 July, Thursday

    Time Temperature Precipitation Wind Pressure Humidity
    00:00 +24°C° 0 mm 3 mps 752 mmHg 62%
    01:00 +23°C° 0 mm 4 mps 752 mmHg 61%
    02:00 +22°C° 0 mm 4 mps 752 mmHg 61%
    03:00 +22°C° 0 mm 4 mps 752 mmHg 60%
    04:00 +22°C° 0 mm 5 mps 752 mmHg 60%
    05:00 +22°C° 0 mm 5 mps 752 mmHg 59%
    06:00 +23°C° 0 mm 5 mps 752 mmHg 56%
    07:00 +24°C° 0 mm 6 mps 752 mmHg 53%
    08:00 +26°C° 0 mm 6 mps 752 mmHg 50%
    09:00 +27°C° 0 mm 6 mps 752 mmHg 46%
    10:00 +28°C° 0 mm 6 mps 752 mmHg 43%
    11:00 +29°C° 0 mm 6 mps 752 mmHg 39%
    12:00 +30°C° 0 mm 6 mps 752 mmHg 37%
    13:00 +30°C° 0 mm 6 mps 751 mmHg 35%
    14:00 +32°C° 0 mm 7 mps 751 mmHg 33%
    15:00 +32°C° 0 mm 6 mps 751 mmHg 33%
    16:00 +32°C° 0 mm 6 mps 751 mmHg 33%
    17:00 +32°C° 0 mm 6 mps 751 mmHg 34%
    18:00 +30°C° 0 mm 5 mps 751 mmHg 38%
    19:00 +29°C° 0 mm 4 mps 751 mmHg 43%
    20:00 +29°C° 0 mm 3 mps 751 mmHg 47%
    21:00 +27°C° 0 mm 3 mps 751 mmHg 52%
    22:00 +25°C° 0 mm 3 mps 752 mmHg 56%
    23:00 +22°C° 0 mm 3 mps 752 mmHg 60%

    Day after tomorrow, 20 July, Friday

    Time Temperature Precipitation Wind Pressure Humidity
    00:00 +21°C° 0 mm 3 mps 752 mmHg 62%
    01:00 +20°C° 0 mm 3 mps 752 mmHg 64%
    02:00 +20°C° 0 mm 3 mps 752 mmHg 66%
    03:00 +20°C° 0 mm 3 mps 752 mmHg 64%
    04:00 +21°C° 0 mm 3 mps 752 mmHg 63%
    05:00 +21°C° 0 mm 3 mps 752 mmHg 61%
    06:00 +23°C° 0 mm 4 mps 752 mmHg 57%
    07:00 +25°C° 0 mm 4 mps 752 mmHg 52%
    08:00 +26°C° 0 mm 5 mps 752 mmHg 48%
    09:00 +27°C° 0 mm 5 mps 751 mmHg 44%
    10:00 +28°C° 0 mm 5 mps 751 mmHg 41%
    11:00 +29°C° 0 mm 6 mps 751 mmHg 37%
    12:00 +30°C° 0 mm 6 mps 750 mmHg 35%
    13:00 +30°C° 0 mm 6 mps 750 mmHg 33%
    14:00 +32°C° 0 mm 5 mps 749 mmHg 32%
    15:00 +32°C° 0 mm 5 mps 749 mmHg 32%
    16:00 +32°C° 0 mm 5 mps 748 mmHg 32%
    17:00 +32°C° 0 mm 5 mps 748 mmHg 32%
    18:00 +29°C° 0 mm 4 mps 748 mmHg 36%
    19:00 +28°C° 0 mm 4 mps 748 mmHg 40%
    20:00 +27°C° 0 mm 4 mps 747 mmHg 45%
    21:00 +26°C° 0 mm 4 mps 747 mmHg 48%
    22:00 +23°C° 0 mm 4 mps 747 mmHg 52%
    23:00 +21°C° 0 mm 5 mps 747 mmHg 55%

    21 July, Saturday

    Time Temperature Precipitation Wind Pressure Humidity
    00:00 +21°C° 0 mm 4 mps 747 mmHg 59%
    01:00 +20°C° 0 mm 4 mps 747 mmHg 63%
    02:00 +19°C° 0 mm 4 mps 747 mmHg 67%
    03:00 +20°C° 0 mm 4 mps 746 mmHg 66%
    04:00 +20°C° 0 mm 4 mps 746 mmHg 65%
    05:00 +21°C° 0 mm 4 mps 746 mmHg 64%
    06:00 +22°C° 0 mm 4 mps 746 mmHg 61%
    07:00 +23°C° 0 mm 4 mps 745 mmHg 57%
    08:00 +26°C° 0 mm 4 mps 745 mmHg 53%
    09:00 +27°C° 0 mm 4 mps 745 mmHg 48%
    10:00 +28°C° 0 mm 5 mps 745 mmHg 44%
    11:00 +29°C° 0 mm 5 mps 745 mmHg 39%
    12:00 +30°C° 0 mm 4 mps 745 mmHg 38%
    13:00 +30°C° 0 mm 4 mps 744 mmHg 37%
    14:00 +30°C° 0 mm 3 mps 744 mmHg 35%
    15:00 +30°C° 0 mm 3 mps 744 mmHg 36%
    16:00 +30°C° 0 mm 3 mps 744 mmHg 36%
    17:00 +30°C° 0 mm 3 mps 744 mmHg 37%
    18:00 +29°C° 0 mm 3 mps 743 mmHg 40%
    19:00 +28°C° 0 mm 2 mps 743 mmHg 44%
    20:00 +27°C° 0 mm 2 mps 743 mmHg 47%
    21:00 +26°C° 0 mm 3 mps 743 mmHg 50%
    22:00 +25°C° 0 mm 3 mps 743 mmHg 53%
    23:00 +24°C° 0 mm 3 mps 743 mmHg 56%

    22 July, Sunday

    Time Temperature Precipitation Wind Pressure Humidity
    00:00 +22°C° 0 mm 3 mps 743 mmHg 62%
    01:00 +21°C° 0 mm 3 mps 743 mmHg 69%
    02:00 +19°C° 0 mm 3 mps 743 mmHg 75%
    03:00 +20°C° 0 mm 3 mps 743 mmHg 73%
    04:00 +21°C° 0 mm 3 mps 743 mmHg 72%
    05:00 +21°C° 0 mm 3 mps 743 mmHg 71%
    06:00 +22°C° 0 mm 3 mps 742 mmHg 67%
    07:00 +24°C° 0 mm 3 mps 742 mmHg 62%
    08:00 +25°C° 0 mm 3 mps 742 mmHg 58%
    09:00 +26°C° 0.1 mm 3 mps 742 mmHg 54%
    10:00 +27°C° 0.1 mm 3 mps 742 mmHg 50%
    11:00 +28°C° 0.1 mm 2 mps 742 mmHg 46%
    12:00 +28°C° 0 mm 2 mps 742 mmHg 44%
    13:00 +29°C° 0 mm 2 mps 742 mmHg 43%
    14:00 +29°C° 0 mm 2 mps 742 mmHg 41%
    15:00 +29°C° 0 mm 2 mps 742 mmHg 42%
    16:00 +29°C° 0 mm 2 mps 742 mmHg 43%
    17:00 +28°C° 0 mm 2 mps 742 mmHg 45%
    18:00 +27°C° 0.1 mm 2 mps 742 mmHg 51%
    19:00 +26°C° 0.1 mm 3 mps 742 mmHg 57%
    20:00 +23°C° 0.1 mm 4 mps 743 mmHg 63%
    21:00 +21°C° 0.1 mm 4 mps 743 mmHg 69%
    22:00 +19°C° 0.1 mm 4 mps 743 mmHg 75%
    23:00 +16°C° 0.1 mm 5 mps 743 mmHg 81%

    23 July, Monday

    Time Temperature Precipitation Wind Pressure Humidity
    00:00 +15°C° 0.2 mm 4 mps 744 mmHg 83%
    01:00 +14°C° 0.2 mm 4 mps 744 mmHg 85%
    02:00 +14°C° 0.2 mm 4 mps 744 mmHg 87%
    03:00 +14°C° 0.4 mm 4 mps 744 mmHg 88%
    04:00 +13°C° 0.4 mm 4 mps 744 mmHg 88%
    05:00 +13°C° 0.4 mm 4 mps 744 mmHg 89%
    06:00 +13°C° 0.9 mm 4 mps 745 mmHg 89%
    07:00 +13°C° 0.9 mm 4 mps 745 mmHg 90%
    08:00 +13°C° 0.9 mm 4 mps 745 mmHg 90%
    09:00 +13°C° 0.5 mm 4 mps 745 mmHg 89%
    10:00 +14°C° 0.5 mm 4 mps 745 mmHg 87%
    11:00 +14°C° 0.5 mm 4 mps 745 mmHg 86%
    12:00 +14°C° 0.1 mm 4 mps 745 mmHg 86%
    13:00 +14°C° 0.1 mm 4 mps 746 mmHg 86%
    14:00 +14°C° 0.1 mm 3 mps 746 mmHg 87%
    15:00 +14°C° 0 mm 3 mps 746 mmHg 86%
    16:00 +14°C° 0 mm 3 mps 746 mmHg 86%
    17:00 +14°C° 0 mm 3 mps 747 mmHg 85%
    18:00 +13°C° 0 mm 3 mps 747 mmHg 86%
    19:00 +13°C° 0 mm 3 mps 747 mmHg 86%
    20:00 +13°C° 0 mm 3 mps 747 mmHg 87%
    21:00 +12°C° 0 mm 3 mps 748 mmHg 88%
    22:00 +13°C° 0 mm 2 mps 748 mmHg 89%
    23:00 +13°C° 0 mm 2 mps 748 mmHg 90%
    Show more